When you browse on this site, cookies collect data to enhance your experience and personalize the content and advertising you see.
Visit our Privacy Policy to learn more. By continuing to use the site, you agree to this use of cookies and data.
  • En España
  • Lista de países
  • Para 7 días
  • Temperatura del agua
  • El tiempo en el mapa
  • Informadores
  • user-avatar
    Iniciar sesión

    Tiempo cada hora Ankona

    Hoy, 4 Junio, Jueves

    Tiempo Temperatura Precipitaciones Viento Presión Humedad
    00:00 +17°C° 0 mm 3 mps 751 mmHg 73%
    01:00 +16°C° 0 mm 3 mps 751 mmHg 71%
    02:00 +16°C° 0 mm 3 mps 751 mmHg 72%
    03:00 +16°C° 0 mm 2 mps 751 mmHg 73%
    04:00 +15°C° 0 mm 2 mps 751 mmHg 74%
    05:00 +17°C° 0 mm 2 mps 751 mmHg 72%
    06:00 +18°C° 0 mm 2 mps 750 mmHg 70%
    07:00 +20°C° 0 mm 2 mps 750 mmHg 69%
    08:00 +21°C° 0 mm 2 mps 750 mmHg 64%
    09:00 +23°C° 0 mm 2 mps 750 mmHg 59%
    10:00 +25°C° 0 mm 2 mps 750 mmHg 55%
    11:00 +25°C° 0 mm 3 mps 750 mmHg 55%
    12:00 +26°C° 0 mm 4 mps 750 mmHg 55%
    13:00 +26°C° 0 mm 4 mps 749 mmHg 55%
    14:00 +26°C° 0 mm 5 mps 749 mmHg 58%
    15:00 +25°C° 0 mm 5 mps 748 mmHg 61%
    16:00 +25°C° 0 mm 5 mps 748 mmHg 64%
    17:00 +23°C° 0 mm 5 mps 747 mmHg 68%
    18:00 +22°C° 0 mm 4 mps 747 mmHg 73%
    19:00 +21°C° 0 mm 3 mps 746 mmHg 77%
    20:00 +20°C° 0 mm 4 mps 746 mmHg 77%
    21:00 +20°C° 0 mm 4 mps 746 mmHg 76%
    22:00 +19°C° 0 mm 5 mps 745 mmHg 76%
    23:00 +19°C° 0 mm 5 mps 745 mmHg 76%

    Mañana, 5 Junio, Viernes

    Tiempo Temperatura Precipitaciones Viento Presión Humedad
    00:00 +17°C° 0 mm 5 mps 745 mmHg 77%
    01:00 +17°C° 0 mm 5 mps 745 mmHg 77%
    02:00 +17°C° 0.5 mm 5 mps 745 mmHg 80%
    03:00 +17°C° 0.5 mm 5 mps 744 mmHg 82%
    04:00 +17°C° 0.5 mm 5 mps 744 mmHg 84%
    05:00 +18°C° 0.5 mm 4 mps 744 mmHg 84%
    06:00 +19°C° 0.5 mm 4 mps 744 mmHg 85%
    07:00 +19°C° 0.5 mm 3 mps 744 mmHg 85%
    08:00 +20°C° 0.1 mm 4 mps 744 mmHg 77%
    09:00 +21°C° 0.1 mm 4 mps 745 mmHg 69%
    10:00 +23°C° 0.1 mm 5 mps 745 mmHg 61%
    11:00 +23°C° 0.1 mm 4 mps 745 mmHg 59%
    12:00 +25°C° 0.1 mm 4 mps 745 mmHg 57%
    13:00 +25°C° 0.1 mm 4 mps 745 mmHg 56%
    14:00 +25°C° 0.3 mm 4 mps 745 mmHg 57%
    15:00 +25°C° 0.3 mm 4 mps 746 mmHg 58%
    16:00 +25°C° 0.3 mm 5 mps 746 mmHg 60%
    17:00 +23°C° 0.2 mm 4 mps 746 mmHg 65%
    18:00 +21°C° 0.2 mm 3 mps 747 mmHg 70%
    19:00 +20°C° 0.2 mm 3 mps 747 mmHg 75%
    20:00 +19°C° 0.1 mm 3 mps 748 mmHg 76%
    21:00 +18°C° 0.1 mm 3 mps 749 mmHg 77%
    22:00 +17°C° 0.1 mm 3 mps 749 mmHg 77%
    23:00 +17°C° 0 mm 3 mps 749 mmHg 77%

    Pasado mañana, 6 Junio, Sábado

    Tiempo Temperatura Precipitaciones Viento Presión Humedad
    00:00 +16°C° 0 mm 3 mps 750 mmHg 77%
    01:00 +14°C° 0 mm 3 mps 750 mmHg 77%
    02:00 +14°C° 0 mm 3 mps 750 mmHg 78%
    03:00 +14°C° 0 mm 3 mps 750 mmHg 79%
    04:00 +15°C° 0 mm 2 mps 751 mmHg 79%
    05:00 +16°C° 0 mm 2 mps 751 mmHg 76%
    06:00 +18°C° 0 mm 2 mps 751 mmHg 73%
    07:00 +19°C° 0 mm 2 mps 752 mmHg 69%
    08:00 +21°C° 0 mm 2 mps 752 mmHg 63%
    09:00 +24°C° 0 mm 2 mps 752 mmHg 58%
    10:00 +25°C° 0 mm 2 mps 753 mmHg 52%
    11:00 +26°C° 0 mm 3 mps 753 mmHg 52%
    12:00 +26°C° 0 mm 3 mps 753 mmHg 52%
    13:00 +27°C° 0 mm 4 mps 753 mmHg 51%
    14:00 +26°C° 0 mm 4 mps 752 mmHg 54%
    15:00 +26°C° 0 mm 4 mps 752 mmHg 56%
    16:00 +26°C° 0 mm 4 mps 752 mmHg 59%
    17:00 +25°C° 0 mm 4 mps 752 mmHg 64%
    18:00 +23°C° 0 mm 4 mps 752 mmHg 68%
    19:00 +22°C° 0 mm 4 mps 752 mmHg 73%
    20:00 +21°C° 0 mm 3 mps 753 mmHg 73%
    21:00 +20°C° 0 mm 3 mps 753 mmHg 74%
    22:00 +19°C° 0 mm 3 mps 753 mmHg 74%
    23:00 +18°C° 0 mm 3 mps 753 mmHg 74%

    7 Junio, Domingo

    Tiempo Temperatura Precipitaciones Viento Presión Humedad
    00:00 +18°C° 0 mm 4 mps 753 mmHg 74%
    01:00 +17°C° 0 mm 4 mps 753 mmHg 75%
    02:00 +17°C° 0 mm 3 mps 753 mmHg 76%
    03:00 +17°C° 0 mm 3 mps 753 mmHg 78%
    04:00 +17°C° 0 mm 3 mps 753 mmHg 80%
    05:00 +18°C° 0 mm 3 mps 753 mmHg 77%
    06:00 +19°C° 0 mm 2 mps 753 mmHg 75%
    07:00 +21°C° 0 mm 2 mps 754 mmHg 72%
    08:00 +23°C° 0 mm 2 mps 754 mmHg 67%
    09:00 +25°C° 0 mm 3 mps 754 mmHg 62%
    10:00 +26°C° 0 mm 3 mps 754 mmHg 57%
    11:00 +27°C° 0 mm 3 mps 754 mmHg 56%
    12:00 +27°C° 0 mm 4 mps 754 mmHg 54%
    13:00 +28°C° 0 mm 4 mps 754 mmHg 53%
    14:00 +27°C° 0.3 mm 5 mps 754 mmHg 58%
    15:00 +27°C° 0.3 mm 5 mps 753 mmHg 63%
    16:00 +26°C° 0.3 mm 5 mps 753 mmHg 68%
    17:00 +25°C° 0.4 mm 5 mps 753 mmHg 73%
    18:00 +23°C° 0.4 mm 5 mps 753 mmHg 78%
    19:00 +21°C° 0.4 mm 5 mps 753 mmHg 82%
    20:00 +21°C° 0.1 mm 5 mps 753 mmHg 83%
    21:00 +20°C° 0.1 mm 5 mps 753 mmHg 84%
    22:00 +19°C° 0.1 mm 5 mps 753 mmHg 84%
    23:00 +19°C° 0 mm 4 mps 753 mmHg 83%

    8 Junio, Lunes

    Tiempo Temperatura Precipitaciones Viento Presión Humedad
    00:00 +18°C° 0 mm 4 mps 753 mmHg 83%
    01:00 +18°C° 0 mm 3 mps 752 mmHg 82%
    02:00 +17°C° 0.4 mm 3 mps 752 mmHg 83%
    03:00 +17°C° 0.4 mm 3 mps 752 mmHg 84%
    04:00 +17°C° 0.4 mm 2 mps 752 mmHg 85%
    05:00 +18°C° 0.9 mm 2 mps 752 mmHg 83%
    06:00 +19°C° 0.9 mm 2 mps 752 mmHg 81%
    07:00 +20°C° 0.9 mm 2 mps 752 mmHg 78%
    08:00 +23°C° 0.9 mm 2 mps 752 mmHg 73%
    09:00 +24°C° 0.9 mm 3 mps 752 mmHg 69%
    10:00 +26°C° 0.9 mm 3 mps 752 mmHg 64%
    11:00 +26°C° 1.1 mm 3 mps 752 mmHg 64%
    12:00 +26°C° 1.1 mm 3 mps 752 mmHg 64%
    13:00 +26°C° 1.1 mm 4 mps 752 mmHg 64%
    14:00 +26°C° 1 mm 4 mps 752 mmHg 66%
    15:00 +25°C° 1 mm 3 mps 752 mmHg 69%
    16:00 +25°C° 1 mm 3 mps 752 mmHg 71%
    17:00 +24°C° 0.6 mm 3 mps 752 mmHg 75%
    18:00 +22°C° 0.6 mm 3 mps 752 mmHg 78%
    19:00 +21°C° 0.6 mm 2 mps 752 mmHg 82%
    20:00 +20°C° 0.5 mm 2 mps 753 mmHg 83%
    21:00 +20°C° 0.5 mm 2 mps 753 mmHg 84%
    22:00 +19°C° 0.5 mm 2 mps 753 mmHg 85%
    23:00 +18°C° 0.1 mm 2 mps 753 mmHg 84%

    9 Junio, Martes

    Tiempo Temperatura Precipitaciones Viento Presión Humedad
    00:00 +18°C° 0.1 mm 2 mps 753 mmHg 84%
    01:00 +18°C° 0.1 mm 2 mps 753 mmHg 83%
    02:00 +17°C° 0 mm 2 mps 753 mmHg 84%
    03:00 +17°C° 0 mm 2 mps 753 mmHg 86%
    04:00 +16°C° 0 mm 3 mps 753 mmHg 87%
    05:00 +17°C° 0.1 mm 3 mps 753 mmHg 84%
    06:00 +18°C° 0.1 mm 3 mps 753 mmHg 82%
    07:00 +19°C° 0.1 mm 4 mps 754 mmHg 79%
    08:00 +21°C° 0.1 mm 4 mps 754 mmHg 74%
    09:00 +22°C° 0.1 mm 4 mps 754 mmHg 69%
    10:00 +23°C° 0.1 mm 5 mps 754 mmHg 64%
    11:00 +23°C° 0.1 mm 4 mps 754 mmHg 64%
    12:00 +23°C° 0.1 mm 4 mps 755 mmHg 64%
    13:00 +23°C° 0.1 mm 4 mps 755 mmHg 65%
    14:00 +24°C° 0.1 mm 3 mps 755 mmHg 65%
    15:00 +24°C° 0.1 mm 3 mps 754 mmHg 65%
    16:00 +24°C° 0.1 mm 2 mps 754 mmHg 65%
    17:00 +23°C° 0.1 mm 2 mps 755 mmHg 69%
    18:00 +22°C° 0.1 mm 1 mps 755 mmHg 73%
    19:00 +21°C° 0.1 mm 1 mps 755 mmHg 78%
    20:00 +20°C° 0.1 mm 1 mps 755 mmHg 80%
    21:00 +19°C° 0.1 mm 1 mps 756 mmHg 83%
    22:00 +17°C° 0.1 mm 2 mps 756 mmHg 85%
    23:00 +17°C° 0.2 mm 2 mps 756 mmHg 85%
    Mostrar más